| time (UTC) | temp C | wind direction | speed KPH | gust KPH | rain 1hr cm | rain 24hr cm | rain mn cm | humidity % | barometer mb |
| 20260504090122 | 7 | 106 | 0.0 | 0.0 | 0.00 | 0.00 | 0.00 | 79 | 1008.2 |
| 20260504081553 | 7 | 76 | 0.0 | 0.0 | 0.00 | 0.00 | 0.00 | 72 | 1008.6 |
| 20260504044525 | 6 | 86 | 0.0 | 0.0 | 0.00 | 0.00 | 0.00 | 60 | 1009.3 |
| 20260504043033 | 6 | 97 | 0.0 | 0.0 | 0.00 | 0.00 | 0.00 | 60 | 1009.4 |
| 20260504041524 | 6 | 139 | 0.0 | 0.0 | 0.00 | 0.00 | 0.00 | 59 | 1009.5 |
| 20260504040024 | 6 | 88 | 0.0 | 0.0 | 0.00 | 0.00 | 0.00 | 60 | 1009.4 |
| 20260504034519 | 5 | 82 | 0.0 | 0.0 | 0.00 | 0.00 | 0.00 | 62 | 1009.5 |
| 20260504033020 | 4 | 82 | 0.0 | 0.0 | 0.00 | 0.00 | 0.00 | 65 | 1009.5 |
| 20260504031519 | 3 | 84 | 0.0 | 0.0 | 0.00 | 0.00 | 0.00 | 69 | 1009.6 |
| 20260504030018 | 5 | 84 | 0.0 | 0.0 | 0.00 | 0.00 | 0.00 | 67 | 1009.7 |
| 20260504024518 | 5 | 84 | 0.0 | 0.0 | 0.00 | 0.03 | 0.00 | 61 | 1009.7 |
| 20260504023021 | 6 | 84 | 0.0 | 0.0 | 0.00 | 0.03 | 0.00 | 60 | 1009.8 |
| 20260504021517 | 6 | 103 | 0.0 | 0.0 | 0.00 | 0.03 | 0.00 | 62 | 1009.9 |
| 20260504020019 | 6 | 79 | 0.0 | 0.0 | 0.00 | 0.03 | 0.00 | 62 | 1009.9 |
| 20260504014516 | 6 | 128 | 0.0 | 0.0 | 0.00 | 0.05 | 0.00 | 61 | 1009.9 |
| 20260504013018 | 5 | 118 | 0.0 | 0.0 | 0.00 | 0.05 | 0.00 | 62 | 1009.9 |
| 20260504011520 | 5 | 122 | 0.0 | 0.0 | 0.00 | 0.05 | 0.00 | 66 | 1009.9 |
| 20260504010015 | 4 | 122 | 0.0 | 0.0 | 0.00 | 0.05 | 0.00 | 70 | 1009.7 |
| 20260504004514 | 5 | 121 | 0.0 | 0.0 | 0.00 | 0.08 | 0.00 | 65 | 1009.6 |
| 20260504003012 | 6 | 122 | 0.0 | 0.0 | 0.00 | 0.08 | 0.00 | 64 | 1009.7 |
| 20260504001512 | 6 | 122 | 0.0 | 0.0 | 0.00 | 0.08 | 0.00 | 61 | 1009.5 |
| 20260504000011 | 8 | 122 | 0.0 | 0.0 | 0.00 | 0.08 | 0.00 | 55 | 1009.4 |
| 20260503234510 | 10 | 121 | 0.0 | 0.0 | 0.00 | 0.10 | 0.00 | 48 | 1009.4 |
| 20260503233009 | 11 | 205 | 0.0 | 0.0 | 0.00 | 0.10 | 0.00 | 46 | 1009.3 |
| 20260503231509 | 10 | 163 | 0.0 | 0.0 | 0.00 | 0.10 | 0.00 | 49 | 1009.2 |
| 20260503230007 | 10 | 136 | 0.0 | 0.0 | 0.00 | 0.10 | 0.00 | 52 | 1009.2 |
| 20260503224509 | 10 | 124 | 0.0 | 0.0 | 0.00 | 0.13 | 0.00 | 49 | 1009.3 |
| 20260503223005 | 10 | 152 | 0.0 | 0.0 | 0.00 | 0.13 | 0.00 | 49 | 1009.3 |
| 20260503221505 | 10 | 232 | 0.0 | 0.0 | 0.00 | 0.13 | 0.00 | 48 | 1009.3 |
| 20260503220005 | 10 | 82 | 0.0 | 0.0 | 0.00 | 0.13 | 0.00 | 48 | 1009.3 |
| 20260503214503 | 10 | 268 | 0.0 | 0.0 | 0.00 | 0.15 | 0.00 | 47 | 1009.3 |
| 20260503213102 | 10 | 246 | 0.0 | 0.0 | 0.00 | 0.15 | 0.00 | 48 | 1009.3 |
| 20260503211502 | 10 | 305 | 0.0 | 0.0 | 0.00 | 0.15 | 0.00 | 48 | 1009.3 |
| 20260503204605 | 10 | 229 | 0.0 | 0.0 | 0.00 | 0.15 | 0.00 | 47 | 1009.2 |
| 20260503203100 | 10 | 228 | 0.0 | 0.0 | 0.00 | 0.15 | 0.00 | 46 | 1009.3 |
| 20260503201558 | 9 | 295 | 0.0 | 0.0 | 0.00 | 0.15 | 0.00 | 48 | 1009.6 |
| 20260503194556 | 10 | 239 | 0.0 | 0.0 | 0.00 | 0.15 | 0.00 | 50 | 1009.8 |
| 20260503193051 | 9 | 279 | 0.0 | 0.0 | 0.00 | 0.15 | 0.00 | 54 | 1010.0 |
| 20260503191550 | 8 | 230 | 0.0 | 0.0 | 0.00 | 0.15 | 0.00 | 54 | 1010.0 |
| 20260503190051 | 9 | 236 | 0.0 | 3.2 | 0.00 | 0.15 | 0.00 | 51 | 1010.2 |
| 20260503184558 | 9 | 226 | 0.0 | 9.7 | 0.00 | 0.15 | 0.00 | 51 | 1010.2 |
| 20260503183046 | 9 | 212 | 0.0 | 0.0 | 0.00 | 0.15 | 0.00 | 52 | 1010.3 |
| 20260503181546 | 9 | 327 | 0.0 | 0.0 | 0.00 | 0.15 | 0.00 | 52 | 1010.4 |
| 20260503180054 | 8 | 259 | 0.0 | 0.0 | 0.00 | 0.15 | 0.00 | 53 | 1010.4 |
| 20260503174546 | 8 | 329 | 0.0 | 0.0 | 0.00 | 0.15 | 0.00 | 54 | 1010.5 |
| 20260503173050 | 8 | 256 | 0.0 | 0.0 | 0.00 | 0.15 | 0.00 | 55 | 1010.5 |
| 20260503171542 | 8 | 336 | 0.0 | 0.0 | 0.00 | 0.15 | 0.00 | 54 | 1010.5 |